STARLINK-31865, 59791

Orbit data source: Space-Track

STARLINK-31865, 59791 is a payload satellite owned by SpaceX/Seattle (US) in LEO that was launched on Sat, 18 May 2024 UTC via an FALCON 9 launch vehicle from the Air Force Eastern Test Range (AFETR). Payload-class satellites include a variety of spacecraft equipped with specific instruments for various scientific and technological missions. These include communications satellites like Starlink; space stations such as the ISS; scientific satellites like the Hubble; Earth observation satellites from companies like Planet Labs, Umbra, and HawkEye 360; GPS; miniature CubeSats for education and research; and military/defense satellites.

Loading next visibility...
Identifier
59791, 2024-093K
Orbit
LEO
Country
Flag of USUS
Related business
Manufacturer
SpaceX/Seattle
Mission
Operational Commercial Communications
Bus & Motor
STARLINK V2M, Unknown motor
Mass
730 kg wet, ~700 kg dry
Launch date (UTC)
2024-05-18 (2 years ago)
Launch vehicle
FALCON 9
Launch site
Air Force Eastern Test Range (AFETR)
Object type
Payload
Rocket body
Debris
Shape & HBR
Box + 2 Pan, 17.7 m
Radar Cross Section
33.884 m², Large (>1 m²)

Expand to show TLE details & history
Last TLE update: 13 hours ago

TLE from 13 hours ago
0 STARLINK-31865
1 59791U 24093K   25350.62993218  .00003805  00000-0  14770-3 0  9992
2 59791  43.0098 317.8772 0002755 267.8405  92.2131 15.27589730 89993
Epoch: 2025-12-16T15:07Z
TLE epoch observation values (Epoch: 2025-12-16T15:07:06.140Z)
Latitude
-0.00004°
Longitude
5.59019°
Altitude
482.87 km
Speed
7.626 km/s
True Right ascension
21h 11m 30s
True Declination
0° 00' 00"
Sunlit
Object was in daylight at epoch
Visualization orbit readout
Latitude
Unknown
Longitude
Unknown
Altitude
Unknown
Speed
Unknown
Apparent Right ascension
Unknown
Apparent Declination
Unknown
Sunlit
N/A
Visualization observer readout
Local Sidereal Time
03:07:27
Azimuth
Unknown
Elevation
Unknown
Doppler factor
Unknown
Orbital elements
Apogee altitude
486.854 km
Perigee altitude
483.073 km
Semi-major axis
6,863.1 km
Eccentricity
0.00028
Inclination
43.0098°
RAAN
317.8772°
Arg. of periapsis
267.8405°
True anomaly
92.24465°
Mean anomaly
92.2131°
Eccentric anomaly
92.22887°
Mean motion
3.81736 °/min
Orbital period
94.31 mins
BSTAR
0.0001477
Loading maneuver chart data...
Computing Atmospheric mass density...
Loading historical data...
Loading historical data...
Loading historical data...
Loading historical data...
Loading historical data...
Loading historical data...
Loading historical data...

Documentation

Showing up to 5 results
|